Home   Weather   Leerdam   Past weeks

Flag for Netherlands Past Weather in Leerdam, Netherlands — Yesterday and Last 2 Weeks

Now
51 °F

Partly sunny.


Feels Like: 51 °F
Forecast: 39 / 65 °F
Wind: 3 mph from West

Location: De Bilt

Current Time: Apr 29, 2017 at 1:35:47 pm

Latest Report: Apr 29, 2017 at 12:00 pm


Visibility: 22 mi

Pressure: 30.08 "Hg

Humidity: 54%

Dew Point: 35 °F

Location of LeerdamLocation

Past Weather in Leerdam — Graph

°F

Leerdam Temperature Yesterday

Maximum temperature yesterday: 52 °F (at 2:00 pm)
Minimum temperature yesterday: 39 °F (at 11:00 pm)
Average temperature yesterday: 46 °F

High & Low Weather Summary for the Past Weeks

 TemperatureHumidityPressure
High58 °F (Apr 21, 1:00 pm)100% (Apr 26, 6:00 am)30.65 "Hg (Apr 26, 6:00 am)
Low27 °F (Apr 20, 6:00 am)37% (Apr 20, 3:00 pm)29.70 "Hg (Apr 25, 4:00 am)
Average45 °F73%30.17 "Hg
* Reported Apr 14 2:00 pm — Apr 29 12:00 pm, Leerdam, Weather by CustomWeather, © 2017

Note: Actual official high and low records may vary slightly from our data, if they occured in-between our weather recording intervals... More about our weather records

Advertising

Leerdam Weather History for the Previous 24 Hours

Scroll right to see more
 ConditionsComfort  
Time TempWeatherWind HumidityBarometerVisibility
12:00 pm
Sat, Apr 29
51 °FPartly sunny.3 mph54%30.08 "Hg22 mi
11:00 am50 °FPassing clouds.2 mph58%30.08 "Hg28 mi
10:00 am49 °FPartly sunny.2 mph61%30.08 "Hg19 mi
9:00 am48 °FSunny.1 mph70%30.07 "Hg19 mi
8:00 am41 °FPassing clouds.No wind90%30.06 "Hg9 mi
7:00 am33 °FSunny.1 mph100%30.06 "Hg0 mi
6:00 am34 °FPassing clouds.1 mph99%30.06 "Hg3 mi
5:00 am33 °FPassing clouds.1 mph100%30.06 "Hg1 mi
4:00 am35 °FPassing clouds.1 mph98%30.05 "Hg1 mi
3:00 am40 °FOvercast.1 mph90%30.04 "Hg22 mi
2:00 am37 °FOvercast.1 mph96%30.04 "Hg19 mi
1:00 am39 °FPassing clouds.1 mph91%30.04 "Hg22 mi
12:00 am38 °FOvercast.2 mph94%30.04 "Hg25 mi
11:00 pm
Fri, Apr 28
39 °FPassing clouds.1 mph89%30.02 "Hg28 mi
10:00 pm43 °FPassing clouds.2 mph73%30.02 "Hg28 mi
9:00 pm46 °FOvercast.2 mph60%30.01 "Hg28 mi
8:00 pm49 °FPartly sunny.5 mph58%29.99 "Hg25 mi
7:00 pm49 °FOvercast.6 mph56%29.99 "Hg28 mi
6:00 pm50 °FOvercast.5 mph63%29.98 "Hg28 mi
5:00 pm51 °FPartly sunny.5 mph58%29.96 "Hg28 mi
4:00 pm51 °FPartly sunny.5 mph57%29.96 "Hg28 mi
2:00 pm52 °FOvercast.3 mph62%29.94 "Hg22 mi
1:00 pm49 °FOvercast.3 mph71%29.94 "Hg22 mi
Weather by CustomWeather, © 2017

See weather overviewHow to use our weather pages